Observations for Trim Patrick St
| Time | AQI | Temp °C | Hum % | Pres Pa | CO μg/m³ | H₂S μg/m³ | NO μg/m³ | NO₂ μg/m³ | O₃ μg/m³ | SO₂ μg/m³ | PM1 μg/m³ | PM2.5 μg/m³ | PM10 μg/m³ |
|---|---|---|---|---|---|---|---|---|---|---|---|---|---|
| Thursday 27 August 2026 | |||||||||||||
| 14:42 | 3 | 21.3 | 76 | 38,460 | 0.05 | 0 | 2.13 | 12.97 | 38.19 | 3.56 | 11.43 | 17.54 | 19.29 |
| 14:41 | 3 | 21.3 | 76 | 38,460 | 0.04 | 0 | 2.18 | 9.64 | 44.48 | 3.08 | 14.86 | 20.35 | 22.38 |
| 14:40 | 3 | 21.3 | 76 | 38,460 | 0.03 | 0 | 2.43 | 9.5 | 43.45 | 2.36 | 14.86 | 19.63 | 21.59 |
| 14:39 | 3 | 21.2 | 77 | 38,460 | 0.06 | 0 | 2.64 | 13.44 | 50.98 | 1.92 | 13.14 | 20.29 | 22.32 |
| 14:38 | 3 | 21.2 | 76 | 38,460 | 0.04 | 0 | 2.74 | 13.22 | 39.9 | 1.87 | 17.43 | 22.52 | 24.77 |
| 14:37 | 3 | 21.2 | 76 | 38,460 | 0.09 | 0 | 3.16 | 7.94 | 36.5 | 2.94 | 16.57 | 23.91 | 26.31 |
| 14:36 | 3 | 21.1 | 76 | 38,460 | 0.07 | 1.59 | 3.04 | 13.55 | 43.04 | 2.27 | 17.43 | 23.13 | 25.45 |
| 14:35 | 3 | 21.1 | 76 | 38,460 | 0.07 | 2.36 | 2.81 | 17.31 | 44.02 | 2.76 | 15.71 | 21.72 | 23.89 |
| 14:34 | 3 | 21.1 | 76 | 38,460 | 0.06 | 1.12 | 2.73 | 13.16 | 40.47 | 2.78 | 16.57 | 21.02 | 23.13 |
| 14:33 | 3 | 21 | 77 | 38,460 | 0.03 | 0.97 | 2.7 | 13.75 | 48.69 | 2.04 | 18.29 | 26.61 | 29.27 |
| 14:32 | 3 | 21 | 76 | 38,460 | 0.04 | 0 | 1.99 | 11.6 | 41.02 | 1.82 | 15.71 | 21.72 | 23.89 |
| 14:31 | 3 | 21 | 78 | 38,460 | 0.04 | 0 | 2.25 | 12.94 | 41.97 | 2.16 | 14.86 | 21.61 | 23.77 |
| 14:30 | 3 | 20.9 | 77 | 38,460 | 0.05 | 0 | 1.72 | 11.73 | 44.72 | 2.36 | 15.71 | 23.08 | 25.38 |
| 14:29 | 3 | 20.9 | 77 | 38,460 | 0.03 | 0.44 | 1.67 | 10.22 | 41.92 | 2.99 | 16.57 | 20.96 | 23.05 |
| 14:28 | 3 | 20.8 | 77 | 38,460 | 0.05 | 2.71 | 1.51 | 19.68 | 44.79 | 1.67 | 17.43 | 23.76 | 26.13 |
| 14:27 | 3 | 20.8 | 77 | 38,460 | 0.03 | 1.21 | 1.62 | 16 | 36.83 | 2.39 | 16.57 | 23.09 | 25.4 |
| 14:26 | 3 | 20.8 | 77 | 38,460 | 0.02 | 2.11 | 1.23 | 21.69 | 37.21 | 2.71 | 16.57 | 22.36 | 24.59 |
| 14:25 | 3 | 20.8 | 77 | 38,460 | 0.02 | 2.13 | 1.64 | 17.89 | 39.13 | 1.71 | 17.43 | 23.78 | 26.16 |
| 14:24 | 3 | 20.7 | 78 | 38,460 | 0.02 | 0.08 | 1.15 | 14.8 | 38.35 | 1.69 | 16.57 | 23.71 | 26.08 |
| 14:23 | 3 | 20.7 | 77 | 38,460 | 0.04 | 0 | 1.07 | 12.51 | 38.89 | 2.31 | 15.71 | 21.65 | 23.82 |